sat.trackr.live / text

‹ back to catalog

STARLINK-34055

NORAD 63819 · 2025-092R

PAYLOAD ACTIVE UNKNOWN

§ Identity

Operator
Country
US
Launch date
2025-05-04
Launch site
AFETR
Launch vehicle
Mass (kg)
RCS (m²)

Purposes: comms

External: N2YO · Heavens-Above · Gunter

§ Orbital elements

Epoch: 2026-05-25T00:04:45.151104Z

Period
94.23 min
Inclination
42.9995°
Eccentricity
0.0001078
Mean motion
15.28205804 rev/d
Perigee alt
480.4 km
Apogee alt
481.9 km
Semi-major
6,859.3 km
B*
5.5066e-4
RAAN
101.7295°
Arg perigee
268.0087°
Mean anomaly
92.0641°
Rev number
6,028

§ Raw data

STARLINK-340551 63819U 25092R   26145.00330036  .00015214  00000+0  55066-3 0  99952 63819  42.9995 101.7295 0001078 268.0087  92.0641 15.28205804 60282

JSON: /api/v1/satellites/63819 · /tle

For live sub-satellite position, see the globe view (requires WebGL).

§ Visibility from observer

Set your observer location to see the next 7 days of passes ≥ 10°. The values pass through the URL so the page stays shareable.

No JS? Fill the form by hand. The geolocation button needs JavaScript.